Location: Clair
(33.8067°N, 117.9845°W)
Time: 17:30:50
(UTC+00:00)

OAO 3 Rocket - Pass Details

Date: 14 February 2026
Orbit: 613 x 660 km, 35.0° (Epoch: 8 March)

Event Time Altitude Azimuth Distance (km) Brightness Sun altitude
Exits shadow 13:00:31 27° 208° (SSW) 1,175 4.2 -20.7°
Drops below altitude 10° 13:04:22 10° 150° (SSE) 1,960 6.0 -19.9°
Sets 13:06:56 0° 138° (SE) 2,858 7.1 -19.3°
